Regional Weather Roundup
Issued by NWS Kansas City/Pleasant Hill, MO

Home | Current Version | Previous Version | Text Only | Print | Product List | Glossary On
Versions: 1 2 3 4 5 6 7 8 9 10 11 12 13 14 15 16 17 18 19 20 21 22 23 24 25 26 27 28 29 30 31 32 33 34 35 36 37 38 39 40 41 42 43 44 45 46 47 48 49 50
000
ASUS43 KEAX 282004
RWREAX

WEATHER ROUNDUP FOR EASTERN KANSAS AND NORTHWEST MISSOURI
NATIONAL WEATHER SERVICE KANSAS CITY/PLEASANT HILL MO
300 PM CDT MON JUL 28 2014

KSZ040-057-103>105-MOZ028-029-037-043-282100-
...KANSAS CITY METROPOLITAN AREA...

CITY           SKY/WX    TMP DP  RH WIND       PRES   REMARKS
K.C. INTL      PTSUNNY   80  60  50 N13       30.20F
K.C. DOWNTOWN  PTSUNNY   79  59  50 N10       30.18F
LEES SUMMIT    MOSUNNY   80  57  45 N14       30.20F
OLATHE - IXD   MOSUNNY   80  58  46 NW9       30.21F
OLATHE - OJC   PTSUNNY   80  57  45 N12       30.19F
LAWRENCE       MOSUNNY   84  59  42 N7G17     30.20F

$$

MOZ001>008-011>017-020>025-030>033-038>040-044>046-053-054-282100-
...NORTHERN AND CENTRAL MISSOURI...

CITY           SKY/WX    TMP DP  RH WIND       PRES   REMARKS
ST. JOSEPH     PTSUNNY   75  61  61 N9        30.21F
MOSBY          PTCLDY    77  59  53 NW8       30.19F
WHITEMAN AFB   PTSUNNY   80  47  30 NW9       30.16F
CLINTON        MOSUNNY   81  63  54 N7        30.17F
SEDALIA        PTSUNNY   78  61  55 N13       30.17F
WARSAW         NOT AVBL
MARSHALL       MOSUNNY   81  63  54 N8        30.18F
CHILLICOTHE      N/A     80  57  45 N8        30.20F
KIRKSVILLE     PTSUNNY   78  55  44 N12       30.20S

$$

MOZ041-047>049-056>058-063>065-088>090-097-282100-
...EASTERN AND SOUTHERN MISSOURI...

CITY           SKY/WX    TMP DP  RH WIND       PRES   REMARKS
ST. LOUIS INTL PTSUNNY   80  61  52 N14       30.11S
SPIRIT OF STL  PTSUNNY   78  57  48 N13       30.10S
COLUMBIA       PTSUNNY   79  58  48 NW14G21   30.16S
JEFFERSON CITY MOSUNNY   78  59  51 NW10      30.13F
HANNIBAL       PTSUNNY   73  52  46 N10       30.16
ROLLA          PTSUNNY   81  57  43 N12       30.12F
LEBANON        SUNNY     84  55  37 NW9       30.15F
OSAGE BEACH    MOSUNNY   81  57  44 NW7       30.14F
SPRINGFIELD    MOSUNNY   83  57  41 NW15G22   30.16F
BRANSON        MOSUNNY   86  54  32 N9G23     30.16F
JOPLIN         SUNNY     85  55  35 N6        30.17F
WEST PLAINS    PTSUNNY   82  58  43 N12       30.13F
MALDEN         SUNNY     84  63  48 NW7       30.07S

$$

IAZ060-094-KSZ022-034>040-054-083-096-NEZ052-066-093-282100-
...KANSAS...SOUTHEAST NEBRASKA AND IOWA...

CITY           SKY/WX    TMP DP  RH WIND       PRES   REMARKS
TOPEKA         MOSUNNY   83  56  39 NW9       30.21F
MANHATTAN      SUNNY     84  54  35 VRB6      30.22F
EMPORIA        SUNNY     84  54  35 N14       30.21F
CHANUTE        SUNNY     83  58  42 N14       30.20F
WICHITA        MOSUNNY   84  59  42 NW9       30.23F
OMAHA          MOSUNNY   77  54  44 N9        30.23F
LINCOLN        PTSUNNY   78  53  41 N10       30.26F
FALLS CITY     PTSUNNY   79  59  50 N10       30.22F
LAMONI         MOSUNNY   75  57  53 NW8       30.21F
DES MOINES     PTSUNNY   76  54  46 W9        30.19F

$$




USA.gov is the U.S. government's official web portal to all federal, state and local government web resources and services.